[[{"header":{"parameterUnit":"m.s-1","parameterCategory":1,"la1":30.2991,"la2":30.254,"lo1":-89.0895,"lo2":-89.0444,"dy":0.0017,"dx":0.0017,"nx":28,"ny":28,"refTime":"2024-02-12T09:00:00:Z","depth":0,"parameterNumber":2,"parameterNumberName":"U-component_of_WINDS"},"data":[0,0,0,0,0,0,0,0,0,0,0,0,0,0,0,0,0,0,0,0,0,0,0,0,0,0,0,0,0,0,0,0,0,0,0,0,0,0,0,0,0,0,0,0,0,0,0,0,0,0,0,0,0,0,0,0,0,0,0.5974,0.5974,0,0.5986,0.5986,0.5986,0.5985,0.5985,0.5985,0.5985,0.5997,0.5997,0.5998,0,0,0,0,0,0,0,0,0,0,0,0,0,0.5951,0.5952,0.5974,0.5974,0.5974,0.5986,0.5986,0.5986,0.5985,0.5985,0.5985,0.5985,0.5997,0.5997,0.5998,0,0,0,0,0,0,0,0,0,0,0,0,0,0.5962,0.5952,0.5974,0.5975,0.5975,0.5986,0.5986,0.5986,0.5985,0.5985,0.5985,0.5985,0.5997,0.5997,0.5998,0.6008,0,0,0.6,0.6001,0,0,0,0,0,0,0,0,0.5961,0.5963,0.5975,0.5975,0.5975,0.5984,0.5982,0.5993,0.5986,0.5982,0.5985,0.5985,0.5993,0.5994,0.5997,0.6008,0.6009,0.6,0.6001,0.6001,0.6001,0,0,0,0,0,0,0,0.5961,0.5962,0.5978,0.5975,0.5975,0.5976,0.5977,0.5984,0.5988,0.5982,0.5982,0.5983,0.5993,0.5996,0.5997,0.6009,0.6,0.6001,0.6001,0.6002,0.603,0.6031,0,0,0,0,0,0,0.5959,0.5962,0.5978,0.5979,0.5968,0.5976,0.5977,0.5981,0.5988,0.5989,0.5984,0.5983,0.5995,0.5996,0.5997,0.601,0.6001,0.6002,0.6002,0.603,0.603,0.6031,0,0,0,0,0,0,0.5959,0.5961,0.5978,0.597,0.5972,0.5977,0.5981,0.5982,0.5985,0.599,0.599,0.5986,0.5995,0.5996,0.6005,0.601,0.6002,0.6003,0.603,0.603,0.6031,0.6034,0,0,0,0,0,0,0.5958,0.5961,0.5964,0.597,0.5973,0.5985,0.5981,0.5982,0.5986,0.5986,0.5992,0.5993,0.5995,0.6004,0.6006,0.6011,0.6003,0.6029,0.603,0.603,0.6033,0.6034,0.6035,0,0,0,0,0,0.5957,0.5964,0.5964,0.5966,0.5977,0.5985,0.5987,0.5989,0.5986,0.599,0.5993,0.5993,0.6009,0.6005,0.6007,0.6012,0.6029,0.603,0.603,0.6033,0.6034,0.6035,0,0,0,0,0,0,0.5958,0.5965,0.5965,0.5974,0.5979,0.5985,0.599,0.599,0.5996,0.5995,0.5998,0.5999,0.6008,0.6011,0.6007,0.6023,0.6019,0.602,0.602,0.6021,0.6022,0.6021,0.6004,0,0,0,0,0,0.5959,0.5965,0.5971,0.5979,0.5981,0.5985,0.5989,0.599,0.5995,0.5998,0.6002,0.6007,0.6014,0.6018,0.6024,0.6034,0.6036,0.6039,0.604,0.604,0.6041,0.6048,0.6049,0.6033,0.6033,0.6033,0,0,0.5962,0.5966,0.597,0.5979,0.5983,0.599,0.5987,0.5994,0.5999,0.5999,0.6007,0.6011,0.6017,0.6027,0.6031,0.603,0.6046,0.6041,0.6042,0.6042,0.6049,0.605,0.6052,0.6034,0.6033,0.6033,0,0,0.5969,0.5973,0.598,0.5985,0.5991,0.5994,0.5996,0.6002,0.6005,0.6014,0.6014,0.602,0.6031,0.6036,0.604,0.6051,0.6051,0.6053,0.6058,0.6065,0.6066,0.6067,0.6071,0.6073,0.6054,0.6054,0.6054,0,0.5972,0.5981,0.5984,0.5991,0.5995,0.5996,0.6004,0.6008,0.6016,0.6019,0.6017,0.6032,0.6036,0.6047,0.605,0.6053,0.6056,0.6052,0.6065,0.6067,0.6068,0.6072,0.6074,0.6055,0.6054,0.6054,0.6054,0,0.5984,0.5991,0.5996,0.6004,0.6009,0.6016,0.602,0.6025,0.6026,0.603,0.604,0.6045,0.6053,0.6056,0.6057,0.6068,0.6066,0.6065,0.6061,0.607,0.6074,0.6075,0.6055,0.6055,0.6055,0.6055,0,0,0.5991,0.6002,0.6004,0.6008,0.6016,0.6021,0.6029,0.6037,0.6041,0.6048,0.6054,0.6065,0.6064,0.6068,0.607,0.6076,0.6085,0.6074,0.6074,0.6076,0.6098,0.6099,0.6101,0.6085,0.6085,0.6086,0.6098,0,0.6,0.6014,0.6017,0.6029,0.6035,0.6037,0.6044,0.605,0.6054,0.606,0.6064,0.6072,0.607,0.6073,0.6078,0.6083,0.6089,0.6082,0.6092,0.6092,0.609,0.6103,0.6104,0.6115,0.6099,0.61,0.61,0,0.6012,0.6018,0.6031,0.6039,0.6042,0.6048,0.6056,0.6063,0.607,0.6072,0.6078,0.6079,0.6088,0.6085,0.6097,0.6092,0.6096,0.6099,0.61,0.6101,0.6096,0.6104,0.6118,0.612,0.6102,0.6102,0.6102,0,0.6016,0.6028,0.6038,0.6041,0.6051,0.6055,0.606,0.6067,0.6072,0.6079,0.6082,0.6091,0.6095,0.6102,0.6106,0.6103,0.6118,0.6115,0.6121,0.6121,0.6123,0.6123,0.6138,0.6126,0.6126,0.6126,0.6126,0,0.6025,0.6033,0.604,0.6046,0.6055,0.6059,0.6068,0.6072,0.6079,0.6086,0.6088,0.6094,0.6099,0.6107,0.611,0.6121,0.6123,0.6125,0.6126,0.6125,0.6124,0.6127,0.6127,0.6127,0.6127,0.6127,0.6127,0,0.6031,0.6036,0.6047,0.6056,0.6058,0.6064,0.6072,0.6078,0.6082,0.6091,0.6093,0.61,0.6109,0.6114,0.6125,0.6128,0.6139,0.614,0.6137,0.6137,0.6143,0.6142,0.616,0.6163,0.615,0.615,0.615,0,0.6037,0.6043,0.6053,0.6058,0.6062,0.607,0.6075,0.608,0.6086,0.6095,0.61,0.6109,0.6117,0.6132,0.6138,0.6147,0.6147,0.6153,0.6148,0.6148,0.6147,0.6147,0.6148,0.6153,0.6154,0.6154,0.6154,0,0.6046,0.6049,0.6056,0.6065,0.6072,0.6079,0.6086,0.609,0.6096,0.6102,0.6112,0.6118,0.613,0.6139,0.6149,0.6154,0.6155,0.6155,0.6157,0.6156,0.6154,0.6156,0.6139,0.6155,0.6155,0.6155,0.6155,0.6154,0.6052,0.6058,0.6066,0.6075,0.6081,0.6088,0.6094,0.61,0.6108,0.6118,0.612,0.613,0.6139,0.6152,0.6157,0.6166,0.6165,0.6167,0.6168,0.6168,0.6169,0.6153,0.6167,0.6167,0.6167,0.6167,0.6167,0,0.6062,0.6067,0.6075,0.6086,0.6093,0.6094,0.6102,0.6108,0.6117,0.6125,0.6132,0.6144,0.6154,0.6161,0.6171,0.6176,0.6177,0.6179,0.6178,0.6179,0.6169,0.6166,0.6178,0.6178,0.6178,0.6178,0.6178,0.6178,0.6068,0.6078,0.6081,0.6095,0.6101,0.6111,0.6116,0.6122,0.6128,0.6141,0.6149,0.6154,0.6162,0.6173,0.6182,0.6184,0.6187,0.6189,0.6191,0.6181,0.618,0.6179,0.6176,0.619,0.619,0.6201,0.6201,0.6201]},{"header":{"parameterUnit":"m.s-1","parameterCategory":1,"la1":30.2991,"la2":30.254,"lo1":-89.0895,"lo2":-89.0444,"dy":0.0017,"dx":0.0017,"nx":28,"ny":28,"refTime":"2024-02-12T09:00:00:Z","depth":0,"parameterNumber":3,"parameterNumberName":"V-component_of_WINDS"},"data":[0,0,0,0,0,0,0,0,0,0,0,0,0,0,0,0,0,0,0,0,0,0,0,0,0,0,0,0,0,0,0,0,0,0,0,0,0,0,0,0,0,0,0,0,0,0,0,0,0,0,0,0,0,0,0,0,0,0,-3.852,-3.8522,0,-3.869,-3.8692,-3.8694,-3.8709,-3.8707,-3.8705,-3.8703,-3.8874,-3.8881,-3.8887,0,0,0,0,0,0,0,0,0,0,0,0,0,-3.8206,-3.8212,-3.852,-3.8522,-3.8525,-3.869,-3.8692,-3.8695,-3.8709,-3.8707,-3.8704,-3.8702,-3.8872,-3.888,-3.8887,0,0,0,0,0,0,0,0,0,0,0,0,0,-3.8356,-3.8214,-3.852,-3.8552,-3.8556,-3.869,-3.8693,-3.8695,-3.8709,-3.8707,-3.8704,-3.8701,-3.887,-3.8879,-3.8888,-3.9001,0,0,-3.8917,-3.8921,0,0,0,0,0,0,0,0,-3.8347,-3.8367,-3.8545,-3.855,-3.8555,-3.8676,-3.8645,-3.8798,-3.871,-3.8651,-3.8703,-3.87,-3.881,-3.8824,-3.8862,-3.9009,-3.9016,-3.8918,-3.8924,-3.8928,-3.893,0,0,0,0,0,0,0,-3.8337,-3.836,-3.8587,-3.8547,-3.8554,-3.8557,-3.8575,-3.8674,-3.8744,-3.8656,-3.8657,-3.8678,-3.8812,-3.8853,-3.8866,-3.9019,-3.8918,-3.8926,-3.8932,-3.8935,-3.9267,-3.927,0,0,0,0,0,0,-3.8321,-3.8351,-3.8582,-3.8593,-3.8442,-3.8565,-3.8585,-3.864,-3.8743,-3.8756,-3.868,-3.8678,-3.8838,-3.8855,-3.8872,-3.9011,-3.8927,-3.8936,-3.8942,-3.9264,-3.9268,-3.9271,0,0,0,0,0,0,-3.8314,-3.8341,-3.8575,-3.8473,-3.8503,-3.8573,-3.8634,-3.8644,-3.8685,-3.8761,-3.8773,-3.8708,-3.8837,-3.8859,-3.8969,-3.9017,-3.8941,-3.8949,-3.926,-3.9265,-3.927,-3.929,0,0,0,0,0,0,-3.8305,-3.8339,-3.8383,-3.8473,-3.8508,-3.867,-3.8637,-3.865,-3.8702,-3.87,-3.8791,-3.8803,-3.8837,-3.8955,-3.8979,-3.9029,-3.8956,-3.9256,-3.9263,-3.9268,-3.9285,-3.9295,-3.9303,0,0,0,0,0,-3.8294,-3.8381,-3.8385,-3.8412,-3.8564,-3.8673,-3.8692,-3.8729,-3.8705,-3.875,-3.8799,-3.88,-3.9009,-3.8966,-3.8993,-3.9047,-3.9253,-3.9261,-3.9268,-3.9281,-3.9293,-3.9303,0,0,0,0,0,0,-3.8292,-3.8393,-3.8399,-3.8518,-3.8587,-3.8675,-3.8732,-3.8741,-3.8817,-3.8812,-3.8855,-3.8875,-3.8984,-3.9026,-3.8977,-3.9162,-3.9128,-3.9141,-3.9129,-3.9141,-3.915,-3.9137,-3.8964,0,0,0,0,0,-3.8306,-3.8386,-3.847,-3.8567,-3.8601,-3.8661,-3.8709,-3.8732,-3.8805,-3.8834,-3.889,-3.896,-3.9041,-3.9094,-3.9173,-3.9292,-3.9312,-3.9342,-3.9351,-3.9358,-3.9368,-3.9434,-3.9449,-3.9295,-3.9295,-3.9295,0,0,-3.8335,-3.84,-3.8447,-3.8568,-3.8624,-3.8706,-3.8685,-3.8772,-3.8833,-3.8846,-3.8954,-3.8998,-3.9079,-3.9194,-3.9248,-3.9233,-3.9415,-3.9367,-3.9372,-3.9378,-3.9443,-3.9458,-3.947,-3.93,-3.9299,-3.9298,0,0,-3.8429,-3.8486,-3.8574,-3.8631,-3.8716,-3.8756,-3.8777,-3.8864,-3.8895,-3.9004,-3.9016,-3.9089,-3.9228,-3.9285,-3.9332,-3.9449,-3.9454,-3.9474,-3.952,-3.9584,-3.9596,-3.9607,-3.9648,-3.9663,-3.9484,-3.9484,-3.9484,0,-3.8453,-3.8577,-3.8617,-3.8704,-3.8757,-3.8775,-3.8864,-3.8917,-3.9023,-3.9059,-3.9042,-3.9217,-3.9273,-3.9402,-3.943,-3.9468,-3.9493,-3.9463,-3.9591,-3.9603,-3.9613,-3.9653,-3.9669,-3.9486,-3.9486,-3.9486,-3.9485,0,-3.8603,-3.8689,-3.8749,-3.8853,-3.8913,-3.9,-3.9053,-3.9108,-3.9127,-3.9168,-3.9279,-3.9346,-3.9439,-3.9472,-3.949,-3.9604,-3.9592,-3.9583,-3.955,-3.9629,-3.9667,-3.9683,-3.9489,-3.9488,-3.9487,-3.9487,0,0,-3.8699,-3.8825,-3.8847,-3.8894,-3.8991,-3.9058,-3.9147,-3.9239,-3.9286,-3.9359,-3.9434,-3.9552,-3.9544,-3.9598,-3.9623,-3.9679,-3.9768,-3.9663,-3.9665,-3.9679,-3.9897,-3.9903,-3.992,-3.9772,-3.9775,-3.9778,-3.989,0,-3.8803,-3.8962,-3.9001,-3.9136,-3.9216,-3.9236,-3.9313,-3.938,-3.9421,-3.9494,-3.954,-3.9623,-3.9606,-3.9639,-3.9696,-3.9745,-3.9812,-3.9737,-3.9841,-3.9844,-3.9819,-3.994,-3.9947,-4.005,-3.9906,-3.9908,-3.991,0,-3.8945,-3.9023,-3.9167,-3.9255,-3.929,-3.9358,-3.9446,-3.9517,-3.9594,-3.962,-3.9681,-3.97,-3.9793,-3.9756,-3.9884,-3.9833,-3.9877,-3.9908,-3.9913,-3.9923,-3.9881,-3.9953,-4.0084,-4.0099,-3.9934,-3.9932,-3.993,0,-3.9,-3.9141,-3.9246,-3.9286,-3.9391,-3.9439,-3.9484,-3.9559,-3.9612,-3.9689,-3.9724,-3.9811,-3.9858,-3.9924,-3.9966,-3.9936,-4.0091,-4.0058,-4.0114,-4.0113,-4.0144,-4.0142,-4.0283,-4.0175,-4.0175,-4.0174,-4.0174,0,-3.9112,-3.9199,-3.9272,-3.9336,-3.9434,-3.9478,-3.9574,-3.962,-3.9687,-3.976,-3.9781,-3.9849,-3.9902,-3.9977,-4.001,-4.0111,-4.0132,-4.0155,-4.0163,-4.0153,-4.015,-4.0182,-4.0175,-4.0179,-4.0178,-4.0177,-4.0176,0,-3.9189,-3.9241,-3.9356,-3.9447,-3.9472,-3.954,-3.9617,-3.968,-3.9722,-3.9815,-3.9839,-3.9905,-3.9995,-4.0044,-4.0156,-4.0179,-4.0291,-4.0295,-4.0265,-4.0268,-4.0321,-4.0315,-4.0487,-4.0512,-4.0388,-4.0389,-4.039,0,-3.9256,-3.9323,-3.9422,-3.9473,-3.952,-3.9602,-3.9657,-3.9704,-3.976,-3.9854,-3.9905,-3.9997,-4.0072,-4.0214,-4.0271,-4.0357,-4.0363,-4.0418,-4.0376,-4.0364,-4.0364,-4.0359,-4.0365,-4.0425,-4.0426,-4.0427,-4.0427,0,-3.9369,-3.9392,-3.9471,-3.956,-3.9626,-3.9698,-3.9769,-3.9809,-3.9868,-3.993,-4.0023,-4.0082,-4.0197,-4.0287,-4.0378,-4.0424,-4.0436,-4.0441,-4.0458,-4.0448,-4.0427,-4.0438,-4.0284,-4.0436,-4.0435,-4.0434,-4.0434,-4.0434,-3.9443,-3.9504,-3.9583,-3.9671,-3.973,-3.9796,-3.986,-3.9912,-3.999,-4.0088,-4.0111,-4.0209,-4.0285,-4.0409,-4.0458,-4.0534,-4.0524,-4.0549,-4.0555,-4.056,-4.0562,-4.0416,-4.0551,-4.0551,-4.0551,-4.055,-4.055,0,-3.9557,-3.9609,-3.969,-3.9789,-3.9858,-3.9865,-3.9945,-4.0002,-4.0088,-4.0159,-4.0233,-4.034,-4.0428,-4.0493,-4.0583,-4.0631,-4.0639,-4.0653,-4.0649,-4.066,-4.0567,-4.0542,-4.0646,-4.0646,-4.0646,-4.0646,-4.0646,-4.0646,-3.9624,-3.9728,-3.9761,-3.9894,-3.9946,-4.0043,-4.0088,-4.0149,-4.0206,-4.0325,-4.0399,-4.0441,-4.051,-4.0605,-4.0686,-4.0703,-4.0735,-4.0748,-4.0766,-4.0677,-4.0666,-4.0657,-4.0634,-4.0755,-4.0755,-4.0853,-4.0854,-4.0854]}]]